Location: Washington
(38.8950°N, 77.0367°W)
Time: 02:09:59
(UTC-05:00)

N. Korean satellite - Visible Passes

Search period start: 13 December 2017 00:00
Search period end: 23 December 2017 00:00
Orbit: 461 x 513 km, 97.2° (Epoch: 12 December)

Date Brightness Start Highest point End Pass type
(mag) Time Alt. Az. Time Alt. Az. Time Alt. Az.
13 Dec 9.3 06:12:21 10° NE 06:15:22 23° E 06:18:20 10° SSE visible
13 Dec 7.1 18:19:45 10° S 18:23:24 63° W 18:27:08 10° NNW visible
14 Dec 10.1 05:50:12 10° ENE 05:51:38 12° E 05:53:04 10° ESE visible
14 Dec 6.6 17:56:14 10° SSE 17:59:53 61° ENE 18:03:35 10° N visible
15 Dec 7.4 17:33:09 10° SE 17:36:25 30° ENE 17:39:44 10° N visible
15 Dec 9.7 19:07:39 10° SW 19:09:58 16° W 19:12:20 10° NW visible
16 Dec 7.9 06:34:41 10° NNE 06:38:16 46° E 06:41:45 10° S visible
16 Dec 8.6 18:42:58 10° SSW 18:46:16 30° W 18:49:38 10° NNW visible
17 Dec 9.3 06:11:38 10° NE 06:14:36 23° E 06:17:30 10° SSE visible
17 Dec 7.1 18:18:58 10° S 18:22:39 64° W 18:26:24 10° NNW visible
18 Dec 10.1 05:49:33 10° ENE 05:50:51 12° E 05:52:08 10° ESE visible
18 Dec 6.6 17:55:27 10° SSE 17:59:07 60° ENE 18:02:49 10° N visible
19 Dec 7.5 17:32:22 10° SE 17:35:38 30° ENE 17:38:57 10° N visible
19 Dec 9.7 19:06:49 10° SW 19:09:11 16° W 19:11:36 10° NW visible
20 Dec 7.9 06:33:56 10° NNE 06:37:28 45° E 06:40:54 10° S visible
20 Dec 8.6 18:42:08 10° SSW 18:45:29 31° W 18:48:52 10° NNW visible
21 Dec 9.4 06:10:53 10° NE 06:13:46 22° E 06:16:37 10° SSE visible
21 Dec 7.1 18:18:09 10° S 18:21:52 65° W 18:25:36 10° NNW visible
22 Dec 10.1 05:48:54 10° ENE 05:50:01 11° E 05:51:08 10° ESE visible
22 Dec 6.6 17:54:37 10° SSE 17:58:19 59° ENE 18:02:01 10° N visible
